This is the latest recevied weather packets stored in our database for station/object DW9280. If no packets are shown the sender has not sent any weather packets the latest 10 day(s).
| Time | Temp. | Humidity | Pressure | Rain* | Wind** | Luminosity | Snow |
|---|---|---|---|---|---|---|---|
| 1787485508 | 20° C | 62% | 1024.6 hPa | 0 mm | - | 763 W/m² | - |
| 1787485209 | 20.56° C | 60% | 1024.6 hPa | 0 mm | - | 555 W/m² | - |
| 1787484908 | 20.56° C | 60% | 1024.6 hPa | 0 mm | - | 438 W/m² | - |
| 1787484608 | 20.56° C | 60% | 1024.6 hPa | 0 mm | - | 526 W/m² | - |
| 1787484308 | 20.56° C | 61% | 1024.6 hPa | 0 mm | - | 807 W/m² | - |
| 1787484131 | 20.56° C | 64% | 1024.6 hPa | 0 mm | - | 580 W/m² | - |
| 1787483706 | 20° C | 64% | 1024.6 hPa | 0 mm | - | 932 W/m² | - |
| 1787483410 | 19.44° C | 65% | 1024.6 hPa | 0 mm | - | 828 W/m² | - |
| 1787483108 | 19.44° C | 66% | 1024.6 hPa | 0 mm | - | 501 W/m² | - |
| 1787482808 | 19.44° C | 67% | 1024.6 hPa | 0 mm | - | 390 W/m² | - |
| 1787482511 | 18.89° C | 69% | 1024.6 hPa | 0 mm | - | 234 W/m² | - |
| 1787482210 | 19.44° C | 68% | 1024.7 hPa | 0 mm | - | 221 W/m² | - |
| 1787481906 | 19.44° C | 67% | 1024.6 hPa | 0 mm | - | 504 W/m² | - |
| 1787481609 | 20° C | 62% | 1024.7 hPa | 0 mm | - | 267 W/m² | - |
| 1787481309 | 20.56° C | 59% | 1024.6 hPa | 0 mm | - | 438 W/m² | - |
| 1787481009 | 20.56° C | 58% | 1024.6 hPa | 0 mm | - | 889 W/m² | - |
| 1787480709 | 20.56° C | 58% | 1024.5 hPa | 0 mm | - | 951 W/m² | - |
| 1787480410 | 20.56° C | 58% | 1024.6 hPa | 0 mm | - | 773 W/m² | - |
| 1787480108 | 20° C | 59% | 1024.5 hPa | 0 mm | - | 738 W/m² | - |
| 1787479810 | 20° C | 60% | 1024.6 hPa | 0 mm | - | 719 W/m² | - |
| 1787479509 | 20° C | 60% | 1024.6 hPa | 0 mm | - | 752 W/m² | - |
| 1787479207 | 20° C | 60% | 1024.6 hPa | 0 mm | - | 710 W/m² | - |
| 1787478908 | 19.44° C | 62% | 1024.6 hPa | 0 mm | - | 758 W/m² | - |
| 1787478607 | 18.89° C | 62% | 1024.6 hPa | 0 mm | - | 364 W/m² | - |
| 1787478308 | 18.89° C | 62% | 1024.6 hPa | 0 mm | - | 471 W/m² | - |
* Rain latest hour (hover to see other rain measurements)
** Current wind speed in m/s (hover to see current wind gust speed)